Location: Bushey
(51.6333°N, 0.3667°W)
Time: 22:25:51
(UTC+00:00)

Cosmos 1302 Rocket - Visible Passes

Search period start: 24 June 2021 00:00
Search period end: 04 July 2021 00:00
Orbit: 757 x 775 km, 74.0° (Epoch: 24 June)

Date Brightness Start Highest point End Pass type
(mag) Time Alt. Az. Time Alt. Az. Time Alt. Az.
24 Jun 7.2 00:12:49 10° NW 00:13:40 10° NNW 00:14:32 10° NNW visible
24 Jun 4.9 21:47:03 10° SW 21:52:11 53° WNW 21:57:19 10° NNE visible
24 Jun 6.9 23:32:49 10° WNW 23:35:30 14° NW 23:38:11 10° N visible
25 Jun 4.2 21:09:15 10° SSW 21:14:31 80° WNW 21:19:48 10° NNE visible
25 Jun 6.7 22:53:45 10° W 22:57:25 19° NW 23:01:06 10° N visible
26 Jun 6.3 22:15:05 10° WSW 22:19:27 26° NW 22:23:50 10° N visible
27 Jun 5.7 21:36:44 10° WSW 21:41:36 37° NW 21:46:27 10° NNE visible
27 Jun 7.4 23:24:01 10° NW 23:25:15 11° NNW 23:26:29 10° NNW visible
28 Jun 7.0 22:44:16 10° WNW 22:47:05 14° NW 22:49:55 10° N visible
29 Jun 6.9 22:05:15 10° W 22:09:01 20° NW 22:12:48 10° N visible
30 Jun 6.4 21:26:38 10° WSW 21:31:05 27° NW 21:35:31 10° N visible
01 Jul 7.7 02:43:21 10° NNE 02:45:07 12° NNE 02:46:53 10° NE visible
01 Jul 7.5 22:35:19 10° NW 22:36:50 11° NNW 22:38:21 10° NNW visible
02 Jul 7.2 21:55:43 10° WNW 21:58:41 15° NW 22:01:39 10° N visible
03 Jul 7.0 21:16:46 10° W 21:20:38 20° NW 21:24:30 10° N visible
